GW3513 Weather Reports


Display with metric or nautical units.
time (UTC)temp
F
wind
direction
speed
MPH
gust
MPH
rain 1hr
in
rain 24hr
in
rain mn
in
humidity
%
barometer
mb
20260510191728 87 161 0.0 0.0 0.00 0.00 0.00 32 1022.1
20260510191224 87 161 0.0 0.0 0.00 0.00 0.00 32 1022.2
20260510190722 88 161 0.0 0.0 0.00 0.00 0.00 31 1021.9
20260510190219 88 161 0.0 0.0 0.00 0.00 0.00 30 1022.2
20260510185716 86 161 0.0 0.0 0.00 0.00 0.00 32 1022.3
20260510185214 87 161 0.0 0.0 0.00 0.00 0.00 33 1022.3
20260510184710 86 161 0.0 0.0 0.00 0.00 0.00 33 1022.2
20260510184207 85 161 0.0 0.0 0.00 0.00 0.00 37 1022.1
20260510183702 85 161 0.0 0.0 0.00 0.00 0.00 33 1022.2
20260510183157 86 161 0.0 0.0 0.00 0.00 0.00 32 1022.2
20260510182654 86 161 0.0 0.0 0.00 0.00 0.00 33 1022.2
20260510182149 84 161 0.0 0.0 0.00 0.00 0.00 33 1022.0
20260510181647 82 161 0.0 0.0 0.00 0.00 0.00 36 1022.1
20260510181143 82 161 0.0 0.0 0.00 0.00 0.00 36 1021.6
20260510180639 81 161 0.0 0.0 0.00 0.00 0.00 36 1021.7
20260510180137 85 161 0.0 0.0 0.00 0.00 0.00 32 1021.9
20260510175633 84 161 0.0 0.0 0.00 0.00 0.00 35 1021.8
20260510175128 83 161 0.0 0.0 0.00 0.00 0.00 35 1022.0
20260510174626 83 161 0.0 0.0 0.00 0.00 0.00 34 1021.8
20260510174124 83 161 0.0 0.0 0.00 0.00 0.00 33 1021.8
20260510173619 82 161 0.0 0.0 0.00 0.00 0.00 37 1021.7
20260510173116 82 161 0.0 0.0 0.00 0.00 0.00 36 1021.8
20260510172611 81 161 0.0 0.0 0.00 0.00 0.00 37 1021.6
20260510172108 79 161 0.0 0.0 0.00 0.00 0.00 40 1021.9
20260510171604 80 161 0.0 0.0 0.00 0.00 0.00 36 1021.4
20260510171103 79 161 0.0 0.0 0.00 0.00 0.00 40 1021.4
20260510170558 78 161 0.0 0.0 0.00 0.00 0.00 41 1021.7
20260510170055 77 161 0.0 0.0 0.00 0.00 0.00 41 1021.6
20260510165551 78 161 0.0 0.0 0.00 0.00 0.00 41 1021.6
20260510165047 77 161 0.0 0.0 0.00 0.00 0.00 43 1021.6
20260510164545 74 161 0.0 0.0 0.00 0.00 0.00 46 1021.4
20260510164040 74 161 0.0 0.0 0.00 0.00 0.00 44 1021.2
20260510163536 75 161 0.0 0.0 0.00 0.00 0.00 44 1021.3
20260510163033 73 161 0.0 0.0 0.00 0.00 0.00 48 1021.1
20260510162528 72 162 0.0 0.0 0.00 0.00 0.00 51 1021.4
20260510162025 71 162 0.0 0.0 0.00 0.00 0.00 52 1021.6
20260510161520 72 162 0.0 0.0 0.00 0.00 0.00 51 1021.3
20260510161017 72 162 0.0 0.0 0.00 0.00 0.00 53 1021.1
20260510160509 72 162 0.0 0.0 0.00 0.00 0.00 53 1021.0
20260510160008 70 162 0.0 0.0 0.00 0.00 0.00 55 1020.8
20260510155505 69 162 0.0 0.0 0.00 0.00 0.00 54 1020.9
20260510155001 70 162 0.0 0.0 0.00 0.00 0.00 55 1020.8
20260510154457 70 162 0.0 0.0 0.00 0.00 0.00 56 1020.8
20260510153956 70 162 0.0 0.0 0.00 0.00 0.00 57 1020.8
20260510153452 69 162 0.0 0.0 0.00 0.00 0.00 59 1020.7
20260510152949 69 162 0.0 0.0 0.00 0.00 0.00 60 1020.7
20260510152447 68 162 0.0 0.0 0.00 0.00 0.00 62 1020.8
20260510151943 68 162 0.0 0.0 0.00 0.00 0.00 63 1020.7
20260510151440 68 162 0.0 0.0 0.00 0.00 0.00 61 1020.6
20260510150936 68 162 0.0 0.0 0.00 0.00 0.00 61 1020.8
20260510150431 68 162 0.0 0.0 0.00 0.00 0.00 64 1020.9
20260510145927 68 162 0.0 0.0 0.00 0.00 0.00 65 1020.9
20260510145419 68 162 0.0 0.0 0.00 0.00 0.00 65 1021.0
20260510144916 68 162 0.0 0.0 0.00 0.00 0.00 65 1021.1
20260510144412 68 162 0.0 0.0 0.00 0.00 0.00 65 1021.0
20260510143907 69 162 0.0 0.0 0.00 0.00 0.00 63 1020.9
20260510143404 69 162 0.0 0.0 0.00 0.00 0.00 64 1021.0
20260510142901 70 162 0.0 0.0 0.00 0.00 0.00 62 1021.1
20260510142357 70 162 0.0 0.0 0.00 0.00 0.00 63 1020.8
20260510141854 70 162 0.0 0.0 0.00 0.00 0.00 64 1020.7
20260510141351 69 162 0.0 0.0 0.00 0.00 0.00 65 1020.6
20260510140848 69 162 0.0 0.0 0.00 0.00 0.00 68 1020.7
20260510140343 69 162 0.0 0.0 0.00 0.00 0.00 67 1020.5
20260510135837 69 162 0.0 0.0 0.00 0.00 0.00 66 1020.6
20260510135333 69 162 0.0 0.0 0.00 0.00 0.00 66 1020.5
20260510134831 68 162 0.0 0.0 0.00 0.00 0.00 68 1020.4
20260510134328 67 162 0.0 0.0 0.00 0.00 0.00 69 1020.4
20260510133824 67 162 0.0 0.0 0.00 0.00 0.00 69 1020.0
20260510133320 67 162 0.0 0.0 0.00 0.00 0.00 68 1020.2
20260510132816 67 162 0.0 0.0 0.00 0.00 0.00 69 1020.1
20260510132314 66 162 0.0 0.0 0.00 0.00 0.00 70 1020.0
20260510131811 66 162 0.0 0.0 0.00 0.00 0.00 71 1019.9
20260510131308 65 162 0.0 0.0 0.00 0.00 0.00 74 1019.8
20260510130805 64 162 0.0 0.0 0.00 0.00 0.00 75 1019.7
20260510130302 64 162 0.0 0.0 0.00 0.00 0.00 77 1019.6
20260510125758 63 162 0.0 0.0 0.00 0.00 0.00 76 1019.7
20260510125254 62 162 0.0 0.0 0.00 0.00 0.00 79 1019.7
20260510124751 62 162 0.0 0.0 0.00 0.00 0.00 81 1019.5
20260510124248 61 162 0.0 0.0 0.00 0.00 0.00 83 1019.6
20260510123744 60 162 0.0 0.0 0.00 0.00 0.00 85 1019.3
20260510123240 59 162 0.0 0.0 0.00 0.00 0.00 86 1019.2
20260510122736 58 162 0.0 0.0 0.00 0.00 0.00 88 1019.1
20260510122233 58 162 0.0 0.0 0.00 0.00 0.00 88 1019.1
20260510121729 57 162 0.0 0.0 0.00 0.00 0.00 90 1018.7
20260510121227 57 162 0.0 0.0 0.00 0.00 0.00 91 1018.7
20260510120724 57 162 0.0 0.0 0.00 0.00 0.00 92 1018.7
20260510120220 56 162 0.0 0.0 0.00 0.00 0.00 93 1018.6
20260510115716 55 162 0.0 0.0 0.00 0.00 0.00 94 1018.6
20260510115214 54 162 0.0 0.0 0.00 0.00 0.00 95 1018.4
20260510114709 53 162 0.0 0.0 0.00 0.00 0.00 95 1018.6
20260510114207 53 161 0.0 0.0 0.00 0.00 0.00 95 1018.6
20260510113701 53 161 0.0 0.0 0.00 0.00 0.00 95 1018.4
20260510113158 53 161 0.0 0.0 0.00 0.00 0.00 94 1018.2
20260510112654 53 161 0.0 0.0 0.00 0.00 0.00 94 1017.9
20260510112152 53 161 0.0 0.0 0.00 0.00 0.00 94 1018.2
20260510111642 53 161 0.0 0.0 0.00 0.00 0.00 94 1017.7
20260510111139 53 161 0.0 0.0 0.00 0.00 0.00 94 1017.8
20260510110634 53 161 0.0 0.0 0.00 0.00 0.00 95 1018.0
20260510110131 53 161 0.0 0.0 0.00 0.00 0.00 96 1017.7
20260510105626 53 161 0.0 0.0 0.00 0.00 0.00 96 1017.7
20260510105121 53 161 0.0 0.0 0.00 0.00 0.00 96 1017.6
20260510104618 53 161 0.0 0.0 0.00 0.00 0.00 96 1017.6
20260510104115 53 161 0.0 0.0 0.00 0.00 0.00 96 1017.7
20260510103612 53 161 0.0 0.0 0.00 0.00 0.00 96 1017.6
20260510103108 53 161 0.0 0.0 0.00 0.00 0.00 95 1017.9
20260510102603 53 161 0.0 0.0 0.00 0.00 0.00 94 1017.8
20260510102059 53 161 0.0 0.0 0.00 0.00 0.00 95 1017.7
20260510101557 54 161 0.0 0.0 0.00 0.00 0.00 95 1017.8
20260510101055 54 161 0.0 0.0 0.00 0.00 0.00 94 1017.7
20260510100551 54 161 0.0 0.0 0.00 0.00 0.00 94 1017.4
20260510100049 54 161 0.0 0.0 0.00 0.00 0.00 94 1017.3
20260510095544 54 161 0.0 0.0 0.00 0.00 0.00 93 1017.3
20260510095044 54 161 0.0 0.0 0.00 0.00 0.00 93 1017.2
20260510094544 54 161 0.0 0.0 0.00 0.00 0.00 93 1017.2
20260510094039 54 161 0.0 0.0 0.00 0.00 0.00 93 1017.1
20260510093535 54 161 0.0 0.0 0.00 0.00 0.00 93 1017.4
20260510093032 54 161 0.0 0.0 0.00 0.00 0.00 94 1017.2
20260510092530 54 161 0.0 0.0 0.00 0.00 0.00 94 1016.9
20260510092029 54 161 0.0 0.0 0.00 0.00 0.00 93 1016.8
20260510091526 55 161 0.0 0.0 0.00 0.00 0.00 93 1016.8
20260510091023 55 161 0.0 0.0 0.00 0.00 0.00 93 1016.9
20260510090520 55 161 0.0 0.0 0.00 0.00 0.00 92 1016.9
20260510090016 55 161 0.0 0.0 0.00 0.00 0.00 91 1016.6
20260510085515 56 161 0.0 0.0 0.00 0.00 0.00 91 1016.7
20260510085012 56 161 0.0 0.0 0.00 0.00 0.00 90 1016.7
20260510084509 56 161 0.0 0.0 0.00 0.00 0.00 89 1016.6
20260510084005 56 161 0.0 0.0 0.00 0.00 0.00 88 1016.7
20260510083502 57 161 0.0 0.0 0.00 0.00 0.00 88 1016.5
20260510082957 57 161 0.0 0.0 0.00 0.00 0.00 85 1016.5
20260510082455 57 161 0.0 0.0 0.00 0.00 0.00 86 1016.5
20260510081955 56 162 0.0 0.0 0.00 0.00 0.00 88 1016.3
20260510081450 56 162 0.0 0.0 0.00 0.00 0.00 90 1016.3
20260510080947 56 162 0.0 0.0 0.00 0.00 0.00 90 1016.0
20260510080445 56 162 0.0 0.0 0.00 0.00 0.00 88 1016.5
20260510075942 56 162 0.0 0.0 0.00 0.00 0.00 89 1016.8
20260510075440 57 162 0.0 0.0 0.00 0.00 0.00 88 1016.8
20260510074937 57 162 0.0 0.0 0.00 0.00 0.00 87 1016.7
20260510074434 56 162 0.0 0.0 0.00 0.00 0.00 87 1016.6
20260510073930 57 162 0.0 0.0 0.00 0.00 0.00 87 1016.6
20260510073426 57 162 0.0 0.0 0.00 0.00 0.00 87 1016.5
20260510072922 57 162 0.0 0.0 0.00 0.00 0.00 83 1016.4
20260510072420 56 162 0.0 0.0 0.00 0.00 0.00 86 1016.5
20260510071915 57 162 0.0 0.0 0.00 0.00 0.00 86 1016.4
20260510071412 57 162 0.0 0.0 0.00 0.00 0.00 84 1016.5
20260510070910 57 162 0.0 0.0 0.00 0.00 0.00 83 1016.6
20260510070407 57 162 0.0 0.0 0.00 0.00 0.00 85 1016.5
20260510065902 58 162 0.0 0.0 0.00 0.00 0.00 82 1016.5
20260510065359 58 162 0.0 0.0 0.00 0.00 0.00 80 1016.5
20260510064855 59 162 0.0 0.0 0.00 0.00 0.00 81 1016.6
20260510064353 59 162 0.0 0.0 0.00 0.00 0.00 78 1016.6
20260510063849 58 162 0.0 0.0 0.00 0.00 0.00 80 1016.4
20260510063346 59 162 0.0 0.0 0.00 0.00 0.00 80 1016.5
20260510062843 59 162 0.0 0.0 0.00 0.00 0.00 78 1016.6
20260510062338 59 162 0.0 0.0 0.00 0.00 0.00 78 1016.6
20260510061834 59 162 0.0 0.0 0.00 0.00 0.00 79 1016.7
20260510061331 59 162 0.0 0.0 0.00 0.00 0.00 79 1016.6
20260510060826 59 162 0.0 0.0 0.00 0.00 0.00 78 1016.6
20260510060324 60 162 0.0 0.0 0.00 0.00 0.00 77 1016.5
20260510055821 61 162 0.0 0.0 0.00 0.00 0.00 75 1016.4
20260510055319 61 162 0.0 0.0 0.00 0.00 0.00 73 1016.3
20260510054819 62 162 0.0 0.0 0.00 0.00 0.00 71 1016.3
20260510054315 62 162 0.0 0.0 0.00 0.00 0.00 71 1016.3
20260510053810 62 162 0.0 0.0 0.00 0.00 0.00 71 1016.2
20260510053306 63 162 0.0 0.0 0.00 0.00 0.00 70 1016.2
20260510052802 62 162 0.0 0.0 0.00 0.00 0.00 71 1016.3
20260510052258 63 162 0.0 0.0 0.00 0.00 0.00 72 1016.3
20260510051754 62 162 0.0 0.0 0.00 0.00 0.00 72 1016.3
20260510051251 63 162 0.0 0.0 0.00 0.00 0.00 72 1016.0
20260510050748 62 162 0.0 0.0 0.00 0.00 0.00 73 1016.2
20260510050245 62 162 0.0 0.0 0.00 0.00 0.00 77 1016.0
20260510045742 63 162 0.0 0.0 0.00 0.00 0.00 73 1015.8
20260510045238 61 162 0.0 0.0 0.00 0.00 0.00 74 1015.9
20260510044735 61 162 0.0 0.0 0.00 0.00 0.00 74 1015.9
20260510044233 61 162 0.0 0.0 0.00 0.00 0.00 75 1015.7
20260510043728 60 162 0.0 0.0 0.00 0.00 0.00 75 1015.7
20260510043225 60 162 0.0 0.0 0.00 0.00 0.00 78 1015.9
20260510042722 60 162 0.0 0.0 0.00 0.00 0.00 77 1015.9
20260510042218 61 162 0.0 0.0 0.00 0.00 0.00 77 1016.0
20260510041715 61 162 0.0 0.0 0.00 0.00 0.00 77 1016.2
20260510041213 61 162 0.0 0.0 0.00 0.00 0.00 73 1015.9
20260510040709 62 162 0.0 0.0 0.00 0.00 0.00 72 1015.8
20260510040206 61 162 0.0 0.0 0.00 0.00 0.00 71 1015.7
20260510035701 60 162 0.0 0.0 0.00 0.00 0.00 73 1015.7
20260510035157 59 162 0.0 0.0 0.00 0.00 0.00 75 1015.6
20260510034653 59 162 0.0 0.0 0.00 0.00 0.00 79 1015.3
20260510034151 59 162 0.0 0.0 0.00 0.00 0.00 79 1015.4
20260510033647 59 162 0.0 0.0 0.00 0.00 0.00 76 1015.7
20260510033145 59 162 0.0 0.0 0.00 0.00 0.00 76 1015.7
20260510032641 59 162 0.0 0.0 0.00 0.00 0.00 79 1015.5
20260510032136 59 162 0.0 0.0 0.00 0.00 0.00 79 1015.5
20260510031631 59 162 0.0 0.0 0.00 0.00 0.00 79 1015.5
20260510031129 60 162 0.0 0.0 0.00 0.00 0.00 78 1015.4
20260510030623 60 162 0.0 0.0 0.00 0.00 0.00 77 1015.4
20260510030121 60 162 0.0 0.0 0.00 0.00 0.00 77 1015.4
20260510025618 60 162 0.0 0.0 0.00 0.00 0.00 76 1015.2
20260510025115 61 162 0.0 0.0 0.00 0.00 0.00 75 1015.3
20260510024612 62 162 0.0 0.0 0.00 0.00 0.00 76 1015.3
20260510024108 62 162 0.0 0.0 0.00 0.00 0.00 72 1015.3
20260510023604 63 162 0.0 0.0 0.00 0.00 0.00 68 1014.9
20260510023102 62 161 0.0 0.0 0.00 0.00 0.00 70 1014.8
20260510022601 62 162 0.0 0.0 0.00 0.00 0.00 72 1014.6
20260510022056 62 162 0.0 0.0 0.00 0.00 0.00 76 1014.4
20260510021552 63 162 0.0 0.0 0.00 0.00 0.00 73 1014.4
20260510021050 63 162 0.0 0.0 0.00 0.00 0.00 71 1014.6
20260510020544 63 162 0.0 0.0 0.00 0.00 0.00 72 1014.5
20260510020040 64 161 0.0 0.0 0.00 0.00 0.00 72 1014.0
20260510015536 65 162 0.0 0.0 0.00 0.00 0.00 68 1014.1
20260510015032 65 162 0.0 0.0 0.00 0.00 0.00 66 1014.1
20260510014529 65 162 0.0 0.0 0.00 0.00 0.00 66 1013.8
20260510014026 66 162 0.0 0.0 0.00 0.00 0.00 67 1013.7
20260510013520 67 162 0.0 0.0 0.00 0.00 0.00 65 1013.6
20260510013016 67 161 0.0 0.0 0.00 0.00 0.00 64 1013.7
20260510012510 68 161 0.0 0.0 0.00 0.00 0.00 61 1013.5
20260510012007 68 161 0.0 0.0 0.00 0.00 0.00 60 1013.3
20260510011501 69 161 0.0 0.0 0.00 0.00 0.00 60 1013.5
20260510010957 71 162 0.0 0.0 0.00 0.00 0.00 58 1013.3
20260510010454 71 162 0.0 0.0 0.00 0.00 0.00 54 1013.6
20260510005951 73 162 0.0 0.0 0.00 0.00 0.00 54 1013.6
20260510005447 73 162 0.0 0.0 0.00 0.00 0.00 53 1013.1
20260510004945 75 162 0.0 0.0 0.00 0.00 0.00 52 1013.2
20260510004442 78 162 0.0 0.0 0.00 0.00 0.00 48 1013.1
20260510003940 79 162 0.0 0.0 0.00 0.00 0.00 43 1013.0
20260510003437 80 162 0.0 0.0 0.00 0.00 0.00 39 1013.1
20260510002937 82 162 0.0 0.0 0.00 0.00 0.00 38 1012.9
20260510002433 82 162 0.0 0.0 0.00 0.00 0.00 38 1012.8
20260510001929 82 162 0.0 0.0 0.00 0.00 0.00 36 1012.9
20260510001427 83 162 0.0 0.0 0.00 0.00 0.00 36 1012.9
20260510000925 84 162 0.0 0.0 0.00 0.00 0.00 37 1013.1
20260510000421 84 162 0.0 0.0 0.00 0.00 0.00 38 1013.2
20260509235917 85 162 0.0 0.0 0.00 0.00 0.00 35 1013.0
20260509235409 86 161 0.0 0.0 0.00 0.00 0.00 37 1013.2
20260509234904 86 162 0.0 0.0 0.00 0.00 0.00 37 1012.9
20260509234402 88 162 0.0 0.0 0.00 0.00 0.00 36 1013.0
20260509233900 89 161 0.0 0.0 0.00 0.00 0.00 33 1013.1
20260509233357 91 161 0.0 0.0 0.00 0.00 0.00 29 1013.3
20260509232852 93 161 0.0 0.0 0.00 0.00 0.00 30 1013.1
20260509232351 94 161 0.0 0.0 0.00 0.00 0.00 30 1013.2
20260509231846 94 161 0.0 0.0 0.00 0.00 0.00 28 1013.0
20260509231344 94 161 0.0 0.0 0.00 0.00 0.00 28 1013.2
20260509230842 95 161 0.0 0.0 0.00 0.00 0.00 26 1013.0
20260509230338 96 161 0.0 0.0 0.00 0.00 0.00 24 1013.1
20260509225833 94 161 0.0 0.0 0.00 0.00 0.00 25 1013.2
20260509225331 94 161 0.0 0.0 0.00 0.00 0.00 32 1013.1
20260509224826 97 161 0.0 0.0 0.00 0.00 0.00 26 1013.1
20260509224322 97 161 0.0 0.0 0.00 0.00 0.00 26 1013.0
20260509223820 97 161 0.0 0.0 0.00 0.00 0.00 25 1013.0
20260509223316 99 161 0.0 0.0 0.00 0.00 0.00 24 1013.1
20260509222813 99 161 0.0 0.0 0.00 0.00 0.00 25 1013.1
20260509222309 99 161 0.0 0.0 0.00 0.00 0.00 25 1013.0
20260509221804 102 161 0.0 0.0 0.00 0.00 0.00 22 1013.0
20260509221302 101 161 0.0 0.0 0.00 0.00 0.00 21 1013.0
20260509220756 102 161 0.0 0.0 0.00 0.00 0.00 26 1013.2
20260509220248 101 161 0.0 0.0 0.00 0.00 0.00 22 1013.2
20260509215743 102 161 0.0 0.0 0.00 0.00 0.00 22 1013.3
20260509215240 101 161 0.0 0.0 0.00 0.00 0.00 23 1013.2
20260509214737 101 161 0.0 0.0 0.00 0.00 0.00 24 1013.2
20260509214234 102 161 0.0 0.0 0.00 0.00 0.00 21 1013.3
20260509213731 107 161 0.0 0.0 0.00 0.00 0.00 22 1013.2
20260509213226 109 161 0.0 0.0 0.00 0.00 0.00 19 1013.1
20260509212725 108 161 0.0 0.0 0.00 0.00 0.00 19 1013.3
20260509212221 105 161 0.0 0.0 0.00 0.00 0.00 21 1013.2
20260509211717 107 161 0.0 0.0 0.00 0.00 0.00 20 1013.2
20260509211214 107 161 0.0 0.0 0.00 0.00 0.00 21 1013.1
20260509210710 107 161 0.0 0.0 0.00 0.00 0.00 21 1013.2
20260509210208 109 161 0.0 0.0 0.00 0.00 0.00 21 1013.1
20260509205707 107 161 0.0 0.0 0.00 0.00 0.00 22 1013.1
20260509205206 105 161 0.0 0.0 0.00 0.00 0.00 22 1013.1
20260509204703 105 161 0.0 0.0 0.00 0.00 0.00 20 1013.5
20260509204159 104 161 0.0 0.0 0.00 0.00 0.00 21 1013.2
20260509203655 106 161 0.0 0.0 0.00 0.00 0.00 26 1013.5
20260509203154 106 161 0.0 0.0 0.00 0.00 0.00 22 1013.6
20260509202649 109 161 0.0 0.0 0.00 0.00 0.00 20 1013.1
20260509202144 110 161 0.0 0.0 0.00 0.00 0.00 21 1013.3
20260509201639 111 161 0.0 0.0 0.00 0.00 0.00 18 1013.2
20260509201137 106 161 0.0 0.0 0.00 0.00 0.00 23 1013.7
20260509200632 102 161 0.0 0.0 0.00 0.00 0.00 23 1013.8
20260509200123 104 161 0.0 0.0 0.00 0.00 0.00 25 1013.8
20260509195619 105 161 0.0 0.0 0.00 0.00 0.00 21 1013.7
20260509195114 99 161 0.0 0.0 0.00 0.00 0.00 22 1013.8
20260509194613 102 160 0.0 0.0 0.00 0.00 0.00 25 1013.8
20260509194111 102 160 0.0 0.0 0.00 0.00 0.00 21 1013.9
20260509193607 103 160 0.0 0.0 0.00 0.00 0.00 21 1013.9
20260509193103 100 160 0.0 0.0 0.00 0.00 0.00 20 1013.9
20260509192559 96 160 0.0 0.0 0.00 0.00 0.00 24 1014.0
20260509192049 95 160 0.0 0.0 0.00 0.00 0.00 25 1014.0